Simultaneous Nadir Overpasses (SNOs) Predictions

Prediction of SNOs between GOES-16 and TERRA Satellite Orbit:

Table of predicted SNOs for the next 14.0 days since TLE Epoch: 2/12/2022
Index Date Time (GOES-16) GOES-16 Lat,Lon TERRA Lat,Lon Distance(km) Time Diff (sec)
1 02/14/2022 03:13:23 -0.03, -75.18 0.45, -73.07 240.96 80
2 02/14/2022 15:37:17 0.04, -75.20 0.68, -78.22 343.02 80
3 02/16/2022 15:22:22 0.04, -75.21 0.04, -75.26 5.74 80
4 02/18/2022 15:12:46 0.04, -75.22 -0.55, -72.29 332.36 80
5 02/19/2022 03:34:10 -0.05, -75.20 -0.50, -77.49 259.58 80
6 02/21/2022 03:19:14 -0.04, -75.22 0.10, -74.53 79.00 80
7 02/23/2022 03:06:59 -0.04, -75.24 0.77, -71.57 417.74 80
8 02/23/2022 15:28:13 0.04, -75.27 0.36, -76.72 166.08 80
9 02/25/2022 15:18:37 0.04, -75.29 -0.26, -73.76 172.82 80
